CW9009 Weather Reports


time (UTC)temp
C
wind
direction
speed
KPH
gust
KPH
rain 1hr
cm
rain 24hr
cm
rain mn
cm
humidity
%
barometer
mb
20260505184428 21 251 1.6 1.6 0.00 0.00 0.00 34 1009.6
20260505183448 21 248 3.2 4.8 0.00 0.00 0.00 37 1009.6
20260505182449 21 294 3.2 4.8 0.00 0.00 0.00 34 1009.7
20260505181428 20 306 1.6 1.6 0.00 0.00 0.00 37 1009.8
20260505180417 20 272 1.6 1.6 0.00 0.00 0.00 37 1009.9
20260505175418 20 215 1.6 3.2 0.00 0.00 0.00 37 1009.9
20260505174418 19 307 1.6 1.6 0.00 0.00 0.00 40 1009.8
20260505173438 18 277 1.6 3.2 0.00 0.00 0.00 40 1009.8
20260505172418 18 115 3.2 4.8 0.00 0.00 0.00 41 1009.8
20260505171439 18 224 1.6 1.6 0.00 0.00 0.00 40 1009.8
20260505170419 18 250 1.6 3.2 0.00 0.00 0.00 44 1009.7
20260505165419 17 241 3.2 4.8 0.00 0.00 0.00 41 1009.7
20260505164439 17 233 1.6 3.2 0.00 0.00 0.00 44 1009.8
20260505163419 17 0 0.0 0.0 0.00 0.00 0.00 44 1009.8
20260505162419 17 301 1.6 4.8 0.00 0.00 0.00 44 1009.8
20260505161419 16 284 3.2 6.4 0.00 0.00 0.00 46 1009.7
20260505160420 16 216 1.6 3.2 0.00 0.00 0.00 46 1009.6
20260505152420 14 307 0.0 1.6 0.00 0.00 0.00 62 1009.6
20260505151442 13 344 1.6 3.2 0.00 0.00 0.00 64 1009.6
20260505150440 13 64 1.6 3.2 0.00 0.00 0.00 66 1009.6
20260505140442 11 92 1.6 3.2 0.00 0.00 0.00 69 1009.2
20260505124423 11 121 3.2 6.4 0.00 0.00 0.00 65 1007.5
20260505123423 11 57 4.8 4.8 0.00 0.00 0.00 65 1007.5
20260505122423 11 84 1.6 1.6 0.00 0.00 0.00 65 1007.2
20260505121423 11 49 3.2 4.8 0.00 0.00 0.00 64 1007.1
20260505120424 11 135 1.6 3.2 0.00 0.00 0.00 64 1007.0
20260505115424 11 96 3.2 4.8 0.00 0.00 0.00 62 1006.9
20260505114424 11 72 1.6 1.6 0.00 0.00 0.00 62 1006.6
20260505113424 12 68 1.6 3.2 0.00 0.00 0.00 62 1006.5
20260505112425 12 109 1.6 3.2 0.00 0.00 0.00 60 1006.5
20260505111445 12 55 1.6 3.2 0.00 0.00 0.00 60 1006.2
20260505110445 12 27 1.6 3.2 0.00 0.00 0.00 59 1006.2
20260505101425 14 0 0.0 0.0 0.00 0.00 0.00 52 1005.5
20260505100506 14 157 0.0 0.0 0.00 0.00 0.00 50 1005.2
20260505095426 14 118 1.6 1.6 0.00 0.00 0.00 50 1005.1
20260505094426 15 195 1.6 1.6 0.00 0.00 0.00 49 1004.8
20260505093426 15 66 1.6 1.6 0.00 0.00 0.00 49 1004.8
20260505092447 15 181 0.0 0.0 0.00 0.00 0.00 47 1004.8
20260505091426 15 178 1.6 1.6 0.00 0.00 0.00 47 1004.7
20260505090427 15 0.0 0.0 0.00 0.00 0.00 46 1004.5
20260505085427 15 237 1.6 1.6 0.00 0.00 0.00 46 1004.2
20260505084428 16 187 1.6 1.6 0.00 0.00 0.00 44 1004.3
20260505083427 16 270 1.6 1.6 0.00 0.00 0.00 44 1004.2
20260505082428 16 300 1.6 3.2 0.00 0.00 0.00 46 1004.1
20260505081428 16 279 1.6 3.2 0.00 0.00 0.00 46 1004.1
20260505080428 16 259 1.6 1.6 0.00 0.00 0.00 44 1004.0
20260505075428 16 283 1.6 1.6 0.00 0.00 0.00 44 1003.9
20260505074428 16 202 1.6 1.6 0.00 0.00 0.00 44 1003.9
20260505073429 16 278 1.6 3.2 0.00 0.00 0.00 44 1003.9
20260505072448 17 68 1.6 1.6 0.00 0.00 0.00 43 1003.9
20260505071449 17 0 0.0 0.0 0.00 0.00 0.00 43 1003.8
20260505070449 17 291 1.6 3.2 0.00 0.00 0.00 41 1003.8
20260505065429 17 0 0.0 0.0 0.00 0.00 0.00 41 1003.8
20260505064450 17 334 1.6 1.6 0.00 0.00 0.00 41 1003.8
20260505063429 17 0 0.0 0.0 0.00 0.00 0.00 41 1003.6
20260505062430 17 0 0.0 0.0 0.00 0.00 0.00 43 1003.5
20260505061430 18 287 0.0 1.6 0.00 0.00 0.00 40 1003.5
20260505060429 18 285 1.6 3.2 0.00 0.00 0.00 40 1003.5
20260505055430 18 187 0.0 0.0 0.00 0.00 0.00 43 1003.4
20260505054430 18 320 0.0 1.6 0.00 0.00 0.00 44 1003.4
20260505053430 18 303 1.6 1.6 0.00 0.00 0.00 38 1003.3
20260505052430 19 300 1.6 1.6 0.00 0.00 0.00 38 1003.3
20260505051431 19 60 0.0 1.6 0.00 0.00 0.00 38 1003.3
20260505050511 20 259 1.6 3.2 0.00 0.00 0.00 37 1003.2
20260505041432 21 291 1.6 1.6 0.00 0.00 0.00 34 1003.1
20260505040432 22 298 1.6 1.6 0.00 0.00 0.00 31 1003.0
20260505035433 22 300 0.0 1.6 0.00 0.00 0.00 29 1002.9
20260505034417 23 301 1.6 3.2 0.00 0.00 0.00 28 1002.7
20260505033417 23 0 0.0 0.0 0.00 0.00 0.00 28 1002.6
20260505032418 23 283 0.0 1.6 0.00 0.00 0.00 26 1002.6
20260505031418 24 296 1.6 1.6 0.00 0.00 0.00 24 1002.3
20260505030418 24 294 0.0 1.6 0.00 0.00 0.00 24 1002.2
20260505025418 25 282 3.2 3.2 0.00 0.00 0.00 24 1002.1
20260505024418 25 284 3.2 3.2 0.00 0.00 0.00 23 1002.1
20260505023418 26 294 3.2 3.2 0.00 0.00 0.00 22 1002.0
20260505022418 26 310 1.6 3.2 0.00 0.00 0.00 20 1002.0
20260505021419 26 277 1.6 3.2 0.00 0.00 0.00 20 1002.0
20260505020419 27 298 3.2 4.8 0.00 0.00 0.00 18 1001.9
20260505015419 27 295 3.2 3.2 0.00 0.00 0.00 17 1001.9
20260505014420 27 291 1.6 3.2 0.00 0.00 0.00 17 1002.0
20260505013440 27 284 1.6 3.2 0.00 0.00 0.00 17 1002.0
20260505012420 28 295 3.2 4.8 0.00 0.00 0.00 16 1002.0
20260505011420 28 277 3.2 3.2 0.00 0.00 0.00 14 1002.0
20260505010420 28 276 4.8 6.4 0.00 0.00 0.00 14 1002.0
20260505005421 28 291 3.2 4.8 0.00 0.00 0.00 12 1002.2
20260505004421 28 299 4.8 8.0 0.00 0.00 0.00 11 1002.3
20260505003421 28 296 1.6 3.2 0.00 0.00 0.00 10 1002.5
20260505002421 28 282 3.2 4.8 0.00 0.00 0.00 11 1002.5
20260505001421 28 285 3.2 3.2 0.00 0.00 0.00 11 1002.6
20260505000441 28 261 1.6 1.6 0.00 0.00 0.00 12 1002.7
20260504235441 28 266 3.2 3.2 0.00 0.00 0.00 12 1002.8
20260504234421 28 285 3.2 4.8 0.00 0.00 0.00 14 1002.8
20260504233422 28 271 1.6 1.6 0.00 0.00 0.00 16 1002.9
20260504232422 28 317 4.8 6.4 0.00 0.00 0.00 16 1003.0
20260504231442 28 294 3.2 4.8 0.00 0.00 0.00 17 1003.0
20260504230423 28 279 3.2 4.8 0.00 0.00 0.00 17 1003.3
20260504225422 28 316 1.6 3.2 0.00 0.00 0.00 18 1003.4
20260504224503 28 295 1.6 3.2 0.00 0.00 0.00 20 1003.4
20260504223423 28 2 1.6 3.2 0.00 0.00 0.00 18 1003.6
20260504222423 28 0 0.0 0.0 0.00 0.00 0.00 18 1003.8
20260504221456 28 274 0.0 1.6 0.00 0.00 0.00 22 1003.9
20260504220423 27 269 1.6 3.2 0.00 0.00 0.00 22 1004.2
20260504215443 27 286 0.0 1.6 0.00 0.00 0.00 23 1004.2
20260504214423 27 259 1.6 1.6 0.00 0.00 0.00 23 1004.4
20260504213424 27 278 3.2 3.2 0.00 0.00 0.00 24 1004.6
20260504212424 27 269 1.6 1.6 0.00 0.00 0.00 26 1004.7
20260504211417 26 339 0.0 1.6 0.00 0.00 0.00 28 1004.7
20260504210438 26 239 1.6 1.6 0.00 0.00 0.00 28 1005.1
20260504205418 26 264 3.2 4.8 0.00 0.00 0.00 28 1005.3
20260504204418 26 267 1.6 1.6 0.00 0.00 0.00 26 1005.3
20260504203418 25 277 1.6 1.6 0.00 0.00 0.00 29 1005.5
20260504202418 25 288 1.6 1.6 0.00 0.00 0.00 28 1005.5
20260504201418 25 268 1.6 1.6 0.00 0.00 0.00 28 1005.6
20260504200419 25 251 1.6 3.2 0.00 0.00 0.00 29 1005.7
20260504195419 24 282 1.6 3.2 0.00 0.00 0.00 30 1005.9
20260504194419 24 286 3.2 3.2 0.00 0.00 0.00 30 1005.9
20260504193420 24 233 4.8 6.4 0.00 0.00 0.00 30 1006.1
20260504192419 23 240 1.6 1.6 0.00 0.00 0.00 30 1006.2
20260504191419 23 211 1.6 3.2 0.00 0.00 0.00 32 1006.5
20260504190420 23 243 3.2 3.2 0.00 0.00 0.00 35 1006.6
20260504185420 22 266 1.6 3.2 0.00 0.00 0.00 35 1006.7